Weather History for KDSV - December, 2012

Change the Weather History Date:

Sunday, December 9, 2012

  Actual Average Record
Temperature  
Mean Temperature 39 °F -  
Max Temperature 45 °F 40 °F 68 °F (1966)
Min Temperature 34 °F 24 °F 3 °F (2002)
Degree Days  
Heating Degree Days 26    
Moisture  
Dew Point 31 °F    
Average Humidity 75    
Maximum Humidity 87    
Minimum Humidity 65    
Precipitation  
Precipitation 0.08 in - - ()
Sea Level Pressure  
Sea Level Pressure 30.12 in    
Wind  
Wind Speed 9 mph (ESE)    
Max Wind Speed 17 mph    
Max Gust Speed 20 mph    
Visibility 10 miles    
Events Rain    
Averages and records for this station are not official NWS values.
T = Trace of Precipitation, MM = Missing Value Source: NWS Daily Summary

Daily Weather History Graph

Daily Weather History Graph

Search for Another Location

Airport or City:

Trip Planner

Search our weather history database for the weather conditions in past years. The results will help you decide how hot, cold, wet, or windy it might be!

Date:

Astronomy

Dec. 09, 2012 Rise Set
Actual Time 7:29 AM EST 4:37 PM EST
Civil Twilight 6:57 AM EST 5:09 PM EST
Nautical Twilight 6:22 AM EST 5:44 PM EST
Astronomical Twilight 5:47 AM EST 6:19 PM EST
Moon 2:55 AM EST (12/9) 1:46 PM EST (12/9)
Length of Visible Light 10h 11m
Length of Day
9h 08m
Waning Crescent, 19% of the Moon is Illuminated
Dec 9
Waning Crescent
Dec 13
New
Dec 20
First Quarter
Dec 28
Full
Jan 4
Last Quarter

Hourly Weather History & Observations

Time (EST) Temp. Windchill Dew Point Humidity Pressure Visibility Wind Dir Wind Speed Gust Speed Precip Events Conditions
12:54 AM 37.0 °F 29.8 °F 30.9 °F 79% 30.20 in 10.0 mi NNW 10.4 mph - N/A   Overcast
1:54 AM 36.0 °F 31.1 °F 30.9 °F 82% 30.22 in 10.0 mi North 5.8 mph - N/A   Overcast
2:54 AM 36.0 °F 31.1 °F 28.9 °F 76% 30.24 in 10.0 mi NW 5.8 mph - N/A   Overcast
3:54 AM 35.1 °F 27.9 °F 28.0 °F 76% 30.27 in 10.0 mi NW 9.2 mph - N/A   Overcast
4:54 AM 34.0 °F 28.8 °F 28.0 °F 79% 30.27 in 10.0 mi NNW 5.8 mph - N/A   Overcast
5:54 AM 34.0 °F 29.8 °F 28.0 °F 79% 30.29 in 10.0 mi NNW 4.6 mph - N/A   Overcast
7:54 AM 34.0 °F 29.8 °F 28.0 °F 79% 30.31 in 10.0 mi NW 4.6 mph - N/A   Overcast
8:54 AM 35.1 °F 32.2 °F 27.0 °F 72% 30.30 in 10.0 mi ENE 3.5 mph - N/A   Overcast
9:54 AM 36.0 °F 28.0 °F 28.0 °F 73% 30.29 in 10.0 mi SE 11.5 mph - N/A   Overcast
10:54 AM 37.0 °F 29.3 °F 28.0 °F 70% 30.27 in 10.0 mi SE 11.5 mph - N/A   Mostly Cloudy
11:12 AM 37.4 °F 30.3 °F 28.4 °F 70% 30.22 in 10.0 mi SE 10.4 mph - N/A   Overcast
11:54 AM 37.9 °F 32.1 °F 28.9 °F 70% 30.24 in 10.0 mi ESE 8.1 mph - N/A   Overcast
12:23 PM 37.4 °F 32.1 °F 28.4 °F 70% 30.18 in 10.0 mi ESE 6.9 mph - N/A   Overcast
12:43 PM 39.2 °F 33.6 °F 30.2 °F 70% 30.16 in 10.0 mi ESE 8.1 mph - N/A   Mostly Cloudy
12:54 PM 39.0 °F 32.3 °F 28.9 °F 67% 30.20 in 10.0 mi East 10.4 mph - N/A   Mostly Cloudy
1:54 PM 39.0 °F 33.4 °F 30.0 °F 70% 30.17 in 10.0 mi ESE 8.1 mph - N/A   Overcast
2:54 PM 39.9 °F 33.4 °F 30.0 °F 68% 30.14 in 10.0 mi SE 10.4 mph - N/A   Overcast
3:54 PM 39.9 °F 34.5 °F 28.9 °F 65% 30.14 in 10.0 mi ESE 8.1 mph - N/A   Overcast
4:54 PM 39.9 °F 35.1 °F 30.0 °F 68% 30.11 in 10.0 mi SSE 6.9 mph - 0.00 in   Overcast
5:43 PM 39.2 °F 32.5 °F 30.2 °F 70% 30.03 in 10.0 mi SSE 10.4 mph - 0.00 in   Overcast
5:54 PM 39.9 °F 32.9 °F 30.0 °F 68% 30.07 in 10.0 mi SSE 11.5 mph - 0.00 in   Overcast
6:54 PM 41.0 °F 34.7 °F 30.9 °F 67% 30.03 in 10.0 mi SE 10.4 mph - 0.00 in Rain Light Rain
7:54 PM 39.9 °F 32.5 °F 35.1 °F 83% 29.99 in 8.0 mi SE 12.7 mph - 0.03 in Rain Light Rain
8:24 PM 39.2 °F 31.2 °F 35.6 °F 87% 29.90 in 10.0 mi SE 13.8 mph - 0.01 in Rain Light Rain
8:54 PM 42.1 °F 35.2 °F 37.9 °F 85% 29.91 in 10.0 mi SE 12.7 mph - 0.02 in Rain Light Rain
9:54 PM 44.1 °F 36.5 °F 39.0 °F 82% 29.88 in 10.0 mi SSE 17.3 mph - 0.02 in Rain Light Rain
10:54 PM 44.1 °F 36.8 °F 39.9 °F 85% 29.86 in 10.0 mi SE 16.1 mph 19.6 mph 0.01 in   Overcast
11:24 PM 44.6 °F 38.1 °F 39.2 °F 81% 29.80 in 10.0 mi SE 13.8 mph - N/A   Overcast
11:54 PM 45.0 °F 38.5 °F 39.0 °F 80% 29.83 in 10.0 mi ESE 13.8 mph 18.4 mph N/A   Overcast